RYR29AM LFBZ-EGSS

Flight info

Callsign RYR29AM
Flight time 1h 39m
Altitude 34000
Route VAVIX DCT CNA DCT TUPAR UN861 DIKRO UM185 ADLOG/N0355F240 M185 TELTU
Aircraft B738/M-SDE3FGILRWY/SB1

Departure

Time 2026-04-24 00:13
Airport Biarritz Pays Basque airport (LFBZ)

Arrival

Time 2026-04-24 01:52
Airport London Stansted Airport (EGSS)
Time Latitude Longitude Altitude Speed Heading
2026-04-23 23:48 43.47062 -1.53236 246 ft 0 kts 358°
2026-04-24 00:05 43.47039 -1.53236 246 ft 4 kts
2026-04-24 00:05 43.47016 -1.53234 246 ft 2 kts 349°
2026-04-24 00:05 43.46994 -1.53222 246 ft 4 kts 301°
2026-04-24 00:05 43.46989 -1.53192 246 ft 3 kts 269°
2026-04-24 00:06 43.46989 -1.53155 246 ft 4 kts 269°
2026-04-24 00:06 43.46989 -1.53118 246 ft 4 kts 269°
2026-04-24 00:06 43.46989 -1.53081 246 ft 4 kts 269°
2026-04-24 00:06 43.46989 -1.53071 246 ft 0 kts 269°
2026-04-24 00:09 43.46989 -1.53074 246 ft 1 kts 269°
2026-04-24 00:09 43.46989 -1.53092 246 ft 2 kts 269°
2026-04-24 00:09 43.46989 -1.53117 246 ft 3 kts 270°
2026-04-24 00:09 43.46989 -1.53142 246 ft 3 kts 270°
2026-04-24 00:10 43.46985 -1.53169 246 ft 4 kts 252°
2026-04-24 00:10 43.46967 -1.53192 246 ft 4 kts 192°
2026-04-24 00:10 43.46940 -1.53185 246 ft 4 kts 163°
2026-04-24 00:10 43.46914 -1.53171 246 ft 4 kts 158°
2026-04-24 00:11 43.46888 -1.53156 246 ft 4 kts 153°
2026-04-24 00:11 43.46864 -1.53139 247 ft 4 kts 152°
2026-04-24 00:11 43.46848 -1.53127 247 ft 4 kts 152°
2026-04-24 00:11 43.46835 -1.53096 248 ft 4 kts 109°
2026-04-24 00:12 43.46833 -1.53058 248 ft 4 kts 90°
2026-04-24 00:12 43.46833 -1.52993 248 ft 19 kts 90°
2026-04-24 00:12 43.46839 -1.52462 248 ft 90 kts 89°
2026-04-24 00:12 43.46851 -1.51307 256 ft 147 kts 88°
2026-04-24 00:13 43.46865 -1.49864 820 ft 150 kts 89°
2026-04-24 00:13 43.46879 -1.48355 1370 ft 163 kts 90°
2026-04-24 00:13 43.46894 -1.46766 1853 ft 175 kts 91°
2026-04-24 00:13 43.47092 -1.45080 2327 ft 187 kts 63°
2026-04-24 00:14 43.48048 -1.44021 3100 ft 180 kts 15°
2026-04-24 00:14 43.49319 -1.44168 3493 ft 193 kts 329°
2026-04-24 00:14 43.50346 -1.45438 3864 ft 208 kts 309°
2026-04-24 00:14 43.51525 -1.46683 4241 ft 224 kts 336°
2026-04-24 00:15 43.53129 -1.46863 4429 ft 245 kts 14°
2026-04-24 00:15 43.54726 -1.46024 4963 ft 246 kts 24°
2026-04-24 00:15 43.56377 -1.45108 5202 ft 269 kts 18°
2026-04-24 00:15 43.58257 -1.44367 5492 ft 289 kts 14°
2026-04-24 00:16 43.60198 -1.43770 6456 ft 279 kts 11°
2026-04-24 00:16 43.62090 -1.43285 7306 ft 279 kts
2026-04-24 00:16 43.64050 -1.42812 7872 ft 289 kts
2026-04-24 00:16 43.66017 -1.42440 8808 ft 284 kts
2026-04-24 00:17 43.67993 -1.42027 9503 ft 292 kts 10°
2026-04-24 00:17 43.69876 -1.40898 10140 ft 302 kts 38°
2026-04-24 00:17 43.71386 -1.38926 10839 ft 308 kts 44°
2026-04-24 00:17 43.72904 -1.36735 11305 ft 322 kts 44°
2026-04-24 00:18 43.74521 -1.34480 11670 ft 340 kts 43°
2026-04-24 00:18 43.76262 -1.32181 12191 ft 350 kts 42°
2026-04-24 00:18 43.78047 -1.29864 12896 ft 355 kts 41°
2026-04-24 00:18 43.79852 -1.27512 13700 ft 357 kts 42°
2026-04-24 00:19 43.81665 -1.25192 14581 ft 355 kts 40°
2026-04-24 00:19 43.83565 -1.22932 15133 ft 366 kts 39°
2026-04-24 00:19 43.85538 -1.20610 15677 ft 373 kts 39°
2026-04-24 00:19 43.87506 -1.18311 16680 ft 369 kts 39°
2026-04-24 00:20 43.89490 -1.15976 17179 ft 381 kts 39°
2026-04-24 00:20 43.91509 -1.13547 17822 ft 386 kts 39°
2026-04-24 00:20 43.93526 -1.11095 18602 ft 387 kts 39°
2026-04-24 00:20 43.95558 -1.08624 19253 ft 389 kts 39°
2026-04-24 00:21 43.97606 -1.06140 19866 ft 393 kts 39°
2026-04-24 00:21 43.99674 -1.03633 20474 ft 396 kts 39°
2026-04-24 00:21 44.01760 -1.01105 21082 ft 400 kts 39°
2026-04-24 00:21 44.03865 -0.98554 21685 ft 403 kts 39°
2026-04-24 00:22 44.05988 -0.95981 22277 ft 407 kts 39°
2026-04-24 00:22 44.08129 -0.93385 22846 ft 410 kts 39°
2026-04-24 00:22 44.10290 -0.90761 23401 ft 414 kts 39°
2026-04-24 00:22 44.12470 -0.88113 23903 ft 418 kts 39°
2026-04-24 00:23 44.14665 -0.85442 24380 ft 420 kts 39°
2026-04-24 00:23 44.16871 -0.82755 24876 ft 422 kts 39°
2026-04-24 00:23 44.19085 -0.80055 25356 ft 425 kts 39°
2026-04-24 00:23 44.21315 -0.77333 25812 ft 427 kts 39°
2026-04-24 00:24 44.23556 -0.74596 26297 ft 429 kts 39°
2026-04-24 00:24 44.25807 -0.71847 26788 ft 431 kts 38°
2026-04-24 00:24 44.28264 -0.69502 27177 ft 429 kts 21°
2026-04-24 00:24 44.31103 -0.68311 27611 ft 426 kts
2026-04-24 00:25 44.34015 -0.67529 28047 ft 428 kts
2026-04-24 00:25 44.36953 -0.66785 28432 ft 431 kts
2026-04-24 00:25 44.39911 -0.66039 28882 ft 432 kts
2026-04-24 00:25 44.42861 -0.65281 29485 ft 429 kts
2026-04-24 00:26 44.45782 -0.64514 30180 ft 425 kts
2026-04-24 00:26 44.48675 -0.63742 30705 ft 422 kts
2026-04-24 00:26 44.51562 -0.62964 31102 ft 423 kts
2026-04-24 00:26 44.54417 -0.62190 31473 ft 424 kts
2026-04-24 00:27 44.57307 -0.61403 31910 ft 423 kts
2026-04-24 00:27 44.60187 -0.60617 32379 ft 421 kts
2026-04-24 00:27 44.63057 -0.59833 32831 ft 420 kts
2026-04-24 00:27 44.65914 -0.59051 33301 ft 418 kts
2026-04-24 00:28 44.68764 -0.58271 33706 ft 417 kts
2026-04-24 00:28 44.71612 -0.57492 34066 ft 417 kts
2026-04-24 00:28 44.77379 -0.55913 34080 ft 423 kts
2026-04-24 00:29 44.83110 -0.54336 34066 ft 415 kts
2026-04-24 00:29 44.88776 -0.52776 34093 ft 416 kts
2026-04-24 00:30 44.94467 -0.51208 34082 ft 417 kts
2026-04-24 00:30 45.00159 -0.49635 34100 ft 418 kts
2026-04-24 00:31 45.05876 -0.48052 34095 ft 419 kts
2026-04-24 00:31 45.11630 -0.46455 34087 ft 418 kts
2026-04-24 00:32 45.17294 -0.44879 34092 ft 417 kts
2026-04-24 00:32 45.22977 -0.43295 34094 ft 416 kts
2026-04-24 00:33 45.28641 -0.41714 34089 ft 414 kts
2026-04-24 00:33 45.34286 -0.40134 34095 ft 413 kts
2026-04-24 00:34 45.39914 -0.38557 34102 ft 412 kts
2026-04-24 00:34 45.45536 -0.36977 34100 ft 412 kts
2026-04-24 00:35 45.51159 -0.35394 34103 ft 412 kts
2026-04-24 00:35 45.56786 -0.33807 34103 ft 412 kts
2026-04-24 00:36 45.62421 -0.32225 34108 ft 413 kts
2026-04-24 00:36 45.65272 -0.31906 34102 ft 410 kts 356°
2026-04-24 00:36 45.68107 -0.32255 34108 ft 408 kts 348°
2026-04-24 00:37 45.73557 -0.34448 34109 ft 407 kts 341°
2026-04-24 00:37 45.78953 -0.36969 34114 ft 408 kts 340°
2026-04-24 00:38 45.84363 -0.39470 34103 ft 409 kts 341°
2026-04-24 00:38 45.89786 -0.41944 34110 ft 409 kts 341°
2026-04-24 00:39 45.95217 -0.44413 34108 ft 409 kts 341°
2026-04-24 00:39 46.00644 -0.46883 34106 ft 409 kts 341°
2026-04-24 00:40 46.06037 -0.49343 34111 ft 409 kts 341°
2026-04-24 00:40 46.11464 -0.51824 34110 ft 409 kts 341°
2026-04-24 00:41 46.16883 -0.54306 34119 ft 409 kts 341°
2026-04-24 00:41 46.22298 -0.56792 34117 ft 408 kts 341°
2026-04-24 00:42 46.27708 -0.59281 34115 ft 408 kts 341°
2026-04-24 00:42 46.33109 -0.61772 34120 ft 407 kts 341°
2026-04-24 00:43 46.38505 -0.64264 34129 ft 407 kts 341°
2026-04-24 00:43 46.43938 -0.66556 34110 ft 408 kts 349°
2026-04-24 00:44 46.49583 -0.67532 34123 ft 409 kts 352°
2026-04-24 00:44 46.55232 -0.68409 34125 ft 408 kts 352°
2026-04-24 00:45 46.60881 -0.69322 34129 ft 408 kts 351°
2026-04-24 00:45 46.66530 -0.70263 34130 ft 408 kts 351°
2026-04-24 00:46 46.72172 -0.71214 34131 ft 408 kts 351°
2026-04-24 00:46 46.77810 -0.72168 34132 ft 408 kts 351°
2026-04-24 00:47 46.83444 -0.73123 34135 ft 407 kts 351°
2026-04-24 00:47 46.89075 -0.74079 34137 ft 407 kts 351°
2026-04-24 00:48 46.94705 -0.75037 34138 ft 407 kts 351°
2026-04-24 00:48 47.00328 -0.75996 34143 ft 407 kts 351°
2026-04-24 00:49 47.05955 -0.76957 34139 ft 407 kts 351°
2026-04-24 00:49 47.11578 -0.77920 34143 ft 407 kts 351°
2026-04-24 00:50 47.17197 -0.78884 34144 ft 407 kts 351°
2026-04-24 00:50 47.22819 -0.79851 34146 ft 407 kts 351°
2026-04-24 00:51 47.28399 -0.80813 34146 ft 406 kts 351°
2026-04-24 00:51 47.34014 -0.81783 34149 ft 406 kts 351°
2026-04-24 00:52 47.39631 -0.82755 34157 ft 406 kts 351°
2026-04-24 00:52 47.45250 -0.83730 34136 ft 407 kts 351°
2026-04-24 00:53 47.50876 -0.84708 34154 ft 407 kts 351°
2026-04-24 00:53 47.56519 -0.85627 34162 ft 409 kts 353°
2026-04-24 00:54 47.62198 -0.86307 34167 ft 410 kts 353°
2026-04-24 00:54 47.67890 -0.86956 34164 ft 411 kts 353°
2026-04-24 00:55 47.73597 -0.87630 34165 ft 411 kts 353°
2026-04-24 00:55 47.79307 -0.88324 34163 ft 412 kts 353°
2026-04-24 00:56 47.84984 -0.89020 34199 ft 412 kts 353°
2026-04-24 00:56 47.90704 -0.89725 34203 ft 412 kts 353°
2026-04-24 00:57 47.96418 -0.90430 34205 ft 412 kts 353°
2026-04-24 00:58 48.04972 -0.91487 34209 ft 411 kts 353°
2026-04-24 00:58 48.10667 -0.92194 34206 ft 410 kts 353°
2026-04-24 00:59 48.16352 -0.92900 34204 ft 410 kts 353°
2026-04-24 00:59 48.21072 -0.93488 34200 ft 409 kts 353°
2026-04-24 01:00 48.26744 -0.94196 34197 ft 409 kts 353°
2026-04-24 01:00 48.32420 -0.94906 34202 ft 409 kts 353°
2026-04-24 01:01 48.38089 -0.95617 34201 ft 409 kts 353°
2026-04-24 01:01 48.43764 -0.96330 34207 ft 409 kts 353°
2026-04-24 01:02 48.49438 -0.97045 34211 ft 409 kts 353°
2026-04-24 01:02 48.56040 -0.97878 34213 ft 410 kts 353°
2026-04-24 01:03 48.60800 -0.98480 34217 ft 410 kts 353°
2026-04-24 01:03 48.66479 -0.99200 34233 ft 410 kts 353°
2026-04-24 01:04 48.72159 -0.99922 34226 ft 410 kts 353°
2026-04-24 01:04 48.77838 -1.00648 34227 ft 409 kts 353°
2026-04-24 01:05 48.83506 -1.01380 34236 ft 409 kts 353°
2026-04-24 01:05 48.89174 -1.02106 34233 ft 408 kts 353°
2026-04-24 01:06 48.94797 -1.02824 34237 ft 408 kts 353°
2026-04-24 01:06 49.00455 -1.03546 34239 ft 408 kts 353°
2026-04-24 01:07 49.06116 -1.04283 34239 ft 408 kts 353°
2026-04-24 01:07 49.11782 -1.05016 34251 ft 409 kts 353°
2026-04-24 01:08 49.17446 -1.05747 34250 ft 409 kts 353°
2026-04-24 01:08 49.23116 -1.06473 34242 ft 409 kts 353°
2026-04-24 01:09 49.28778 -1.07211 34250 ft 408 kts 353°
2026-04-24 01:09 49.34442 -1.07946 34263 ft 408 kts 353°
2026-04-24 01:10 49.40101 -1.08681 34258 ft 408 kts 353°
2026-04-24 01:10 49.45756 -1.09413 34264 ft 408 kts 353°
2026-04-24 01:11 49.51404 -1.10156 34265 ft 407 kts 353°
2026-04-24 01:11 49.57068 -1.10374 34255 ft 412 kts
2026-04-24 01:11 49.59823 -1.09087 34273 ft 417 kts 21°
2026-04-24 01:12 49.62339 -1.06819 34274 ft 422 kts 34°
2026-04-24 01:12 49.66945 -1.01171 34272 ft 423 kts 36°
2026-04-24 01:13 49.71583 -0.95574 34277 ft 423 kts 34°
2026-04-24 01:13 49.76623 -0.91158 34202 ft 411 kts 16°
2026-04-24 01:13 49.79365 -0.90063 33913 ft 401 kts
2026-04-24 01:14 49.82108 -0.89652 33550 ft 394 kts
2026-04-24 01:14 49.84829 -0.89315 33198 ft 390 kts
2026-04-24 01:14 49.87527 -0.88968 32822 ft 388 kts
2026-04-24 01:14 49.90206 -0.88605 32465 ft 385 kts
2026-04-24 01:15 49.92864 -0.88230 32103 ft 382 kts
2026-04-24 01:15 49.95504 -0.87850 31750 ft 380 kts
2026-04-24 01:15 49.98126 -0.87471 31416 ft 378 kts
2026-04-24 01:15 50.00735 -0.87095 31015 ft 377 kts
2026-04-24 01:16 50.03361 -0.86723 30517 ft 380 kts
2026-04-24 01:16 50.05991 -0.86355 30120 ft 379 kts
2026-04-24 01:16 50.08609 -0.85986 29711 ft 377 kts
2026-04-24 01:16 50.11209 -0.85622 29320 ft 374 kts
2026-04-24 01:17 50.13792 -0.85257 28945 ft 372 kts
2026-04-24 01:17 50.16358 -0.84892 28580 ft 370 kts
2026-04-24 01:17 50.18913 -0.84526 28219 ft 367 kts
2026-04-24 01:17 50.21458 -0.84160 27843 ft 367 kts
2026-04-24 01:18 50.24000 -0.83798 27486 ft 367 kts
2026-04-24 01:18 50.26549 -0.83439 27136 ft 369 kts
2026-04-24 01:18 50.29139 -0.83069 26788 ft 380 kts
2026-04-24 01:18 50.31800 -0.82687 26387 ft 386 kts
2026-04-24 01:19 50.34481 -0.82300 25851 ft 389 kts
2026-04-24 01:19 50.37182 -0.81906 25431 ft 389 kts
2026-04-24 01:19 50.39876 -0.81511 25032 ft 388 kts
2026-04-24 01:19 50.42562 -0.81117 24670 ft 387 kts
2026-04-24 01:20 50.45236 -0.80725 24301 ft 385 kts
2026-04-24 01:20 50.47868 -0.80339 23925 ft 385 kts
2026-04-24 01:20 50.50530 -0.79947 23505 ft 383 kts
2026-04-24 01:20 50.53174 -0.79558 23113 ft 381 kts
2026-04-24 01:21 50.55805 -0.79171 22751 ft 378 kts
2026-04-24 01:21 50.58417 -0.78786 22384 ft 376 kts
2026-04-24 01:21 50.61013 -0.78403 22039 ft 373 kts
2026-04-24 01:21 50.63588 -0.78027 21694 ft 371 kts
2026-04-24 01:22 50.66149 -0.77658 21332 ft 368 kts
2026-04-24 01:22 50.68694 -0.77293 20993 ft 366 kts
2026-04-24 01:22 50.71217 -0.76930 20662 ft 363 kts
2026-04-24 01:22 50.73727 -0.76568 20326 ft 361 kts
2026-04-24 01:23 50.76223 -0.76207 19992 ft 359 kts
2026-04-24 01:23 50.78704 -0.75848 19674 ft 357 kts
2026-04-24 01:23 50.81156 -0.75362 19326 ft 354 kts 15°
2026-04-24 01:23 50.83474 -0.74155 18984 ft 349 kts 25°
2026-04-24 01:24 50.85712 -0.72709 18641 ft 347 kts 26°
2026-04-24 01:24 50.87936 -0.71233 18262 ft 346 kts 26°
2026-04-24 01:24 50.90149 -0.69764 17887 ft 344 kts 25°
2026-04-24 01:24 50.92351 -0.68311 17531 ft 342 kts 25°
2026-04-24 01:25 50.94541 -0.66877 17187 ft 339 kts 25°
2026-04-24 01:25 50.96713 -0.65462 16853 ft 336 kts 25°
2026-04-24 01:25 50.98871 -0.64058 16525 ft 334 kts 25°
2026-04-24 01:25 51.01012 -0.62668 16194 ft 332 kts 25°
2026-04-24 01:26 51.03143 -0.61285 15869 ft 330 kts 25°
2026-04-24 01:26 51.05258 -0.59912 15544 ft 327 kts 25°
2026-04-24 01:26 51.07358 -0.58547 15219 ft 325 kts 25°
2026-04-24 01:26 51.09446 -0.57189 14899 ft 323 kts 25°
2026-04-24 01:27 51.11520 -0.55838 14585 ft 321 kts 25°
2026-04-24 01:27 51.13580 -0.54496 14260 ft 319 kts 25°
2026-04-24 01:27 51.15600 -0.53179 13930 ft 317 kts 25°
2026-04-24 01:27 51.17635 -0.51851 13583 ft 315 kts 25°
2026-04-24 01:28 51.19655 -0.50531 13259 ft 312 kts 25°
2026-04-24 01:28 51.21658 -0.49222 12946 ft 310 kts 25°
2026-04-24 01:28 51.23641 -0.47924 12633 ft 307 kts 25°
2026-04-24 01:28 51.25634 -0.46618 12324 ft 304 kts 25°
2026-04-24 01:29 51.27557 -0.45356 12031 ft 302 kts 25°
2026-04-24 01:29 51.29491 -0.44087 11724 ft 299 kts 25°
2026-04-24 01:29 51.31434 -0.42810 11430 ft 297 kts 25°
2026-04-24 01:29 51.33334 -0.41560 11135 ft 295 kts 25°
2026-04-24 01:30 51.35196 -0.40335 10839 ft 292 kts 25°
2026-04-24 01:30 51.37068 -0.39101 10552 ft 290 kts 25°
2026-04-24 01:30 51.38925 -0.37878 10316 ft 286 kts 25°
2026-04-24 01:30 51.40730 -0.36689 10043 ft 282 kts 25°
2026-04-24 01:31 51.42548 -0.35487 9719 ft 281 kts 25°
2026-04-24 01:31 51.44285 -0.34086 9383 ft 278 kts 36°
2026-04-24 01:31 51.45837 -0.32279 9108 ft 274 kts 40°
2026-04-24 01:31 51.47331 -0.30401 8826 ft 272 kts 41°
2026-04-24 01:32 51.48806 -0.28530 8517 ft 271 kts 40°
2026-04-24 01:32 51.50320 -0.26630 7997 ft 277 kts 40°
2026-04-24 01:32 51.51828 -0.24750 7648 ft 272 kts 40°
2026-04-24 01:32 51.53303 -0.22921 7369 ft 265 kts 40°
2026-04-24 01:33 51.54745 -0.21141 7099 ft 258 kts 40°
2026-04-24 01:33 51.56148 -0.19413 6836 ft 251 kts 40°
2026-04-24 01:33 51.57505 -0.17742 6619 ft 240 kts 40°
2026-04-24 01:33 51.58810 -0.16137 6365 ft 233 kts 40°
2026-04-24 01:34 51.60076 -0.14580 6120 ft 226 kts 40°
2026-04-24 01:34 51.61303 -0.13069 5882 ft 219 kts 40°
2026-04-24 01:34 51.62496 -0.11601 5671 ft 213 kts 40°
2026-04-24 01:34 51.63668 -0.10157 5461 ft 212 kts 40°
2026-04-24 01:35 51.64839 -0.08715 5263 ft 212 kts 40°
2026-04-24 01:35 51.66007 -0.07272 5042 ft 211 kts 40°
2026-04-24 01:35 51.67154 -0.05860 4828 ft 204 kts 41°
2026-04-24 01:35 51.68254 -0.04500 4639 ft 195 kts 41°
2026-04-24 01:36 51.69307 -0.03198 4437 ft 188 kts 41°
2026-04-24 01:36 51.70337 -0.01923 4243 ft 186 kts 41°
2026-04-24 01:36 51.71363 -0.00654 4065 ft 186 kts 41°
2026-04-24 01:36 51.72372 0.00595 3858 ft 186 kts 41°
2026-04-24 01:37 51.73395 0.01861 3670 ft 185 kts 41°
2026-04-24 01:37 51.74414 0.03123 3487 ft 184 kts 41°
2026-04-24 01:37 51.75431 0.04384 3291 ft 184 kts 41°
2026-04-24 01:37 51.76444 0.05635 3110 ft 182 kts 40°
2026-04-24 01:38 51.77429 0.06912 2926 ft 181 kts 44°
2026-04-24 01:38 51.78353 0.08257 2739 ft 177 kts 46°
2026-04-24 01:38 51.79249 0.09598 2589 ft 175 kts 46°
2026-04-24 01:38 51.80147 0.10944 2551 ft 177 kts 46°
2026-04-24 01:39 51.81056 0.12305 2285 ft 183 kts 46°
2026-04-24 01:39 51.81979 0.13686 1912 ft 176 kts 45°
2026-04-24 01:39 51.82847 0.14987 1643 ft 164 kts 45°
2026-04-24 01:39 51.83657 0.16203 1422 ft 154 kts 45°
2026-04-24 01:40 51.84418 0.17344 1200 ft 146 kts 44°
2026-04-24 01:40 51.85157 0.18426 1130 ft 140 kts 42°
2026-04-24 01:40 51.85863 0.19481 1022 ft 141 kts 44°
2026-04-24 01:40 51.86583 0.20546 914 ft 135 kts 41°
2026-04-24 01:41 51.87327 0.21566 1294 ft 145 kts 41°
2026-04-24 01:41 51.88125 0.22643 2155 ft 153 kts 42°
2026-04-24 01:41 51.89020 0.23831 2741 ft 176 kts 44°
2026-04-24 01:41 51.89913 0.25194 3370 ft 184 kts 47°
2026-04-24 01:42 51.90857 0.26692 3132 ft 190 kts 46°
2026-04-24 01:42 51.91817 0.28160 3152 ft 199 kts 47°
2026-04-24 01:42 51.93034 0.29615 3090 ft 231 kts 22°
2026-04-24 01:42 51.94733 0.29630 3042 ft 260 kts 344°
2026-04-24 01:43 51.96191 0.27929 2999 ft 262 kts 307°
2026-04-24 01:43 51.96784 0.25226 3006 ft 252 kts 278°
2026-04-24 01:43 51.97014 0.22456 2990 ft 244 kts 279°
2026-04-24 01:43 51.97283 0.19796 2999 ft 241 kts 280°
2026-04-24 01:44 51.97580 0.17115 3006 ft 242 kts 282°
2026-04-24 01:44 51.97923 0.14445 3009 ft 242 kts 283°
2026-04-24 01:44 51.98280 0.11772 3011 ft 244 kts 283°
2026-04-24 01:44 51.98331 0.08944 2998 ft 260 kts 253°
2026-04-24 01:45 51.97433 0.06411 3011 ft 264 kts 221°
2026-04-24 01:45 51.95883 0.04933 3013 ft 257 kts 195°
2026-04-24 01:45 51.94163 0.04197 2999 ft 255 kts 189°
2026-04-24 01:45 51.92434 0.03590 2987 ft 254 kts 188°
2026-04-24 01:46 51.90716 0.02973 2992 ft 252 kts 189°
2026-04-24 01:46 51.89028 0.02344 2982 ft 243 kts 189°
2026-04-24 01:46 51.87442 0.01741 3003 ft 226 kts 189°
2026-04-24 01:46 51.86427 0.01353 2984 ft 219 kts 189°
2026-04-24 01:47 51.84959 0.00756 2953 ft 217 kts 191°
2026-04-24 01:47 51.83505 0.00122 2915 ft 216 kts 191°
2026-04-24 01:47 51.82074 -0.00504 2895 ft 215 kts 191°
2026-04-24 01:47 51.80643 -0.01128 2878 ft 211 kts 190°
2026-04-24 01:48 51.79219 -0.01714 2748 ft 203 kts 184°
2026-04-24 01:48 51.77902 -0.01522 2599 ft 189 kts 152°
2026-04-24 01:48 51.76871 -0.00319 2546 ft 180 kts 126°
2026-04-24 01:48 51.76297 0.01411 2506 ft 173 kts 103°
2026-04-24 01:49 51.76199 0.03335 2501 ft 174 kts 83°
2026-04-24 01:49 51.76665 0.05114 2499 ft 175 kts 54°
2026-04-24 01:49 51.77465 0.06618 2503 ft 178 kts 52°
2026-04-24 01:49 51.78291 0.08113 2505 ft 179 kts 48°
2026-04-24 01:50 51.79198 0.09526 2311 ft 182 kts 46°
2026-04-24 01:50 51.80112 0.10889 2093 ft 173 kts 46°
2026-04-24 01:50 51.80961 0.12158 1840 ft 160 kts 46°
2026-04-24 01:50 51.81758 0.13353 1620 ft 153 kts 45°
2026-04-24 01:51 51.82534 0.14517 1423 ft 150 kts 45°
2026-04-24 01:51 51.83273 0.15623 1248 ft 140 kts 44°
2026-04-24 01:51 51.83987 0.16693 998 ft 139 kts 42°
2026-04-24 01:51 51.84692 0.17752 786 ft 138 kts 42°
2026-04-24 01:52 51.85399 0.18810 562 ft 139 kts 41°
2026-04-24 01:52 51.86144 0.19813 299 ft 135 kts 37°
2026-04-24 01:52 51.85934 0.19888 283 ft 1 kts 311°